User: anonymous   Login
Location: Unspecified
(34.4950°S, 58.5160°W)
Time: 02:59:14
(UTC+00:00)
Language:

Cosmos 1655 Rocket - Orbit

View from above orbital plane
View from above orbital plane
View from above satellite
View from above satellite

Ground track
Ground track

The orbit data is extracted from the following two-line orbital elements,

1 15752U 85041B   22144.74653252  .00000063  00000-0  51136-4 0  9994
2 15752  82.9521  56.8686 0024564 154.3079 205.9302 13.73147634852980
Epoch (UTC): 24 May 2022 17:55:00
Eccentricity: 0.0024564
inclination: 82.9521°
perigee height: 970 km
apogee height: 1006 km
right ascension of ascending node: 56.8686°
argument of perigee: 154.3079°
revolutions per day: 13.73147634
mean anomaly at epoch: 205.9302°
orbit number at epoch: 85298

The dashed part of the orbit path shows where the satellite is in the earth's shadow,  

DLR